Hourly Data Report for May 24, 2022

CARBERRY CS
MANITOBA
Current Station Operator: ECCC - MSC

49°54'20.900" N
99°21'26.800" W
383.50 m
5010547
71170
WZE

Download Data

Hourly Data (May 2022)
Hourly Data Report for May 24, 2022
TIME
LST
Temp Definition
°C
Dew Point Definition
°C
Rel Hum Definition
%
Precip. Amount Definition
mm

Wind Dir Definition
10's deg

Wind Spd Definition
km/h
Visibility Definition
km
Stn Press Definition
kPa
Hmdx Definition


Wind Chill Definition


Weather Definition


00:00 9.2 5.8 79 0.0 19 14   97.07     LegendNANA
01:00 7.8 5.7 86 0.0 19 10   97.06     LegendNANA
02:00 6.6 5.5 93 0.0 18 9   97.02     LegendNANA
03:00 5.8 5.1 95 0.0 20 7   97.06     LegendNANA
04:00 5.2 4.9 98 0.0 17 13   97.06     LegendNANA
05:00 4.8 4.6 98 0.0 19 9   97.10     LegendNANA
06:00 7.3 6.6 95 0.0 19 7   97.13     LegendNANA
07:00 10.2 7.8 85 0.0 21 8   97.14     LegendNANA
08:00 13.4 7.9 70 0.0 22 12   97.16     LegendNANA
09:00 15.1 7.9 62 0.0 21 11   97.16     LegendNANA
10:00 17.6 5.9 46 0.0 19 11   97.17     LegendNANA
11:00 18.9 5.7 42 0.0 17 13   97.18     LegendNANA
12:00 19.6 4.8 38 0.0 17 11   97.18     LegendNANA
13:00 20.5 4.5 35 0.0 13 12   97.15     LegendNANA
14:00 19.9 4.9 37 0.0 15 13   97.14     LegendNANA
15:00 21.4 5.8 36 0.0 18 13   97.13     LegendNANA
16:00 21.6 5.0 34 0.0 20 17   97.11     LegendNANA
17:00 20.9 4.4 34 0.0 18 13   97.09     LegendNANA
18:00 19.6 5.9 41 0.0 18 18   97.09     LegendNANA
19:00 19.8 5.8 40 0.0 16 18   97.10     LegendNANA
20:00 17.7 6.5 48 0.0 17 17   97.14     LegendNANA
21:00 15.4 6.5 55 0.0 16 14   97.21     LegendNANA
22:00 14.3 6.8 61 0.0 16 13   97.25     LegendNANA
23:00 12.9 6.9 67 0.0 16 12   97.25     LegendNANA

Notes on Data Quality.

Legend

  • E = Estimated
  • M = Missing
  • NA = Not Available*
  • [empty] = Indicates an unobserved value
Date modified: